User: anonymous   Login
Location: Mentone
(34.5413°N, 85.5351°W)
Time: 11:42:40
(UTC-06:00)
Language:

ERBS - Orbit

View from above orbital plane
View from above orbital plane
View from above satellite
View from above satellite

Ground track
Ground track

The orbit data is extracted from the following two-line orbital elements,

1 15354U 84108B   14356.17506214  .00019505  00000-0  62946-3 0  6621
2 15354 057.0130 061.3017 0014879 168.1350 192.0053 15.32122032658399
Epoch (UTC): 22 December 2014 04:12:05
Eccentricity: 0.0014879
inclination: 57.0130°
perigee height: 459 km
apogee height: 479 km
right ascension of ascending node: 61.3017°
argument of perigee: 168.1350°
revolutions per day: 15.32122032
mean anomaly at epoch: 192.0053°
orbit number at epoch: 65839

The dashed part of the orbit path shows where the satellite is in the earth's shadow,  

DLR